Home > Weather > Pratteln > Past weeks

Flag for Switzerland Weather for the Past 2 Weeks in Pratteln, Basel-Land, Switzerland

Now
37 °F

Light rain. Passing clouds.


Feels Like: 30 °F
Forecast: 37 / 43 °F
Wind: 10 mph from Southeast

Location: Bale-Mulhouse

Current Time: Feb 12, 2016 at 8:09:08 PM

Latest Report: Feb 12, 2016 at 7:30 PM


Visibility: N/A

Pressure: 29.33 "Hg

Humidity: 93%

Dew point: 36 °F

Location of PrattelnLocation

Historic Weather in Pratteln — Graph

°F

Pratteln Temperature Yesterday

Maximum temperature yesterday: 46 °F (at 2:30 PM)
Minimum temperature yesterday: 32 °F (at 2:00 AM)
Average temperature yesterday: 38 °F

High & Low Weather Summary for the Past Weeks

 TemperatureHumidityPressure
High57 °F (Feb 1, 4:00 AM)100% (Jan 28, 7:12 PM)30.51 "Hg (Jan 28, 7:12 PM)
Low30 °F (Jan 30, 6:00 AM)49% (Feb 11, 3:00 PM)29.27 "Hg (Feb 9, 4:00 PM)
Average44 °F81%30.01 "Hg
* Reported Jan 28 7:12 PM — Feb 12 7:00 PM, Pratteln, Weather by CustomWeather, © 2016

Note: Actual official high and low records may vary slightly from our data, if they occured in-between our weather recording intervals... More about our weather records

Advertising

Pratteln Weather History for the Previous 24 Hours

 ConditionsComfort  
Time TempWeatherWind HumidityBarometerVisibility
7:00 PM
Fri, Feb 12
37 °FLight rain. Partly cloudy.10 mph93%29.33 "HgN/A
6:30 PM37 °FLight rain. Partly cloudy.13 mph93%29.36 "HgN/A
6:00 PM37 °FLight rain. Passing clouds.12 mph93%29.33 "Hg5 mi
5:30 PM37 °FLight rain. Partly sunny.12 mph93%29.36 "Hg6 mi
5:00 PM37 °FLight rain. Partly sunny.13 mph93%29.36 "Hg4 mi
4:30 PM37 °FLight rain. Partly sunny.10 mph93%29.36 "Hg4 mi
4:00 PM37 °FLight rain. Broken clouds.12 mph93%29.36 "Hg4 mi
3:30 PM37 °FLight rain. Broken clouds.10 mph93%29.36 "Hg4 mi
3:00 PM39 °FLight rain. Broken clouds.10 mph87%29.39 "Hg4 mi
2:30 PM39 °FLight rain. Broken clouds.14 mph87%29.39 "Hg3 mi
2:00 PM41 °FLight rain. Partly sunny.13 mph76%29.39 "HgN/A
1:49 PM43 °FLight rain. Partly sunny.12 mph71%29.42 "HgN/A
1:30 PM43 °FPartly sunny.13 mph71%29.42 "HgN/A
1:00 PM43 °FPartly sunny.14 mph71%29.45 "HgN/A
12:30 PM43 °FPartly sunny.13 mph71%29.47 "HgN/A
12:00 PM43 °FPartly sunny.14 mph71%29.50 "HgN/A
11:30 AM43 °FPartly sunny.13 mph71%29.50 "HgN/A
11:00 AM41 °FPartly sunny.13 mph76%29.53 "HgN/A
10:30 AM41 °FScattered clouds.10 mph76%29.56 "HgN/A
10:00 AM39 °FScattered clouds.12 mph81%29.56 "HgN/A
9:30 AM37 °FPassing clouds.8 mph87%29.59 "HgN/A
9:00 AM36 °FPassing clouds.3 mph93%29.59 "HgN/A
8:30 AM34 °FPassing clouds.6 mph100%29.62 "HgN/A
8:00 AM34 °FScattered clouds.6 mph93%29.62 "HgN/A
7:30 AM34 °FPartly cloudy.6 mph100%29.65 "Hg4 mi
7:00 AM34 °FPassing clouds.3 mph100%29.68 "Hg5 mi
6:30 AM36 °FMostly cloudy.2 mph93%29.68 "HgN/A
6:00 AM34 °FPartly cloudy.3 mph100%29.68 "HgN/A
5:30 AM36 °FPartly cloudy.1 mph93%29.71 "Hg6 mi
5:00 AM36 °FPassing clouds.5 mph93%29.71 "Hg5 mi
4:30 AM36 °FScattered showers. Passing clouds.3 mph93%29.71 "HgN/A
4:00 AM36 °FDrizzle. Mostly cloudy.2 mph93%29.71 "HgN/A
3:30 AM36 °FPassing clouds.2 mph93%29.74 "HgN/A
3:00 AM36 °FLight rain. Partly cloudy.3 mph93%29.74 "HgN/A
2:30 AM36 °FLight rain. Partly cloudy.6 mph93%29.74 "HgN/A
2:00 AM37 °FOvercast.6 mph87%29.74 "HgN/A
1:30 AM37 °FLight rain. Mostly cloudy.5 mph87%29.74 "HgN/A
1:00 AM37 °FPassing clouds.3 mph81%29.74 "HgN/A
12:30 AM37 °FMostly cloudy.No wind81%29.74 "HgN/A
12:00 AM37 °FPassing clouds.3 mph81%29.74 "HgN/A
11:00 PM
Thu, Feb 11
37 °FPassing clouds.2 mph75%29.74 "HgN/A
10:30 PM37 °FPassing clouds.2 mph81%29.74 "HgN/A
10:00 PM37 °FPassing clouds.2 mph81%29.74 "HgN/A
9:30 PM36 °FClear.1 mph87%29.74 "Hg10 mi
9:00 PM37 °FClear.2 mph81%29.74 "Hg10 mi
8:30 PM37 °FClear.3 mph87%29.74 "Hg10 mi
8:00 PM37 °FClear.2 mph87%29.74 "Hg10 mi
Weather by CustomWeather, © 2016

See weather overviewHow to use our weather pages